Location: Amsterdam
(30.7274°N, 84.4357°W)
Time: 16:29:24
(UTC+00:00)

Injun/Solrad 3 - Pass Details

Date: 26 February 2026
Orbit: 871 x 985 km, 66.8° (Epoch: 11 March)

Event Time Altitude Azimuth Distance (km) Brightness Sun altitude
Rises 14:02:07 0° 194° (SSW) 3,443 11.0 22.7°
Reaches altitude 10° 14:04:36 10° 191° (S) 2,507 10.4 23.1°
Maximum altitude 14:10:17 61° 111° (ESE) 985 9.1 24.2°
Drops below altitude 10° 14:16:04 10° 33° (NNE) 2,548 10.3 25.3°
Sets 14:18:36 0° 30° (NNE) 3,504 10.9 25.8°
